OneWeb SL0569

operational
NORAD ID: 55148 Int'l Des: 2023-004 Owner: ONEWEBN Country: UK Constellation: oneweb
LEOCIRCULARPOLARONEWEB_TYPE

About OneWeb SL0569

Description loading...

Live Position

Loading 3D Globe...

Upcoming Passes

Altitude History

Altitude vs Time

uPlot chart will show altitude changes over time

Two-Line Element Set

1 55148U 23004J 25351.70544689 .00000378 00000-0 99884-3 0 9990
2 55148 87.8986 356.2778 0001709 58.0795 302.0500 13.13471025146356
Epoch: Dec 17, 2025 • Age: 19 hours

Current Status

Altitude 1212.4 km
Velocity 7.25 km/s
Sub-Earth Point 17.53°N, 92.46°W
Launch Date Jan 10, 2023
Age 2.9 years
Type internet

Technical Details

Classification Payload
Mass 148.00 kg
Dry Mass 140.00 kg
Total Mass 148.00 kg
Length 1.30 m
Diameter 1.00 m
Span 5.00 m
Shape Trapezoid+2 pan
Manufacturer ONEWUS
Bus Type ARROW
Phase Status In Orbit
Owner/State ONEWEBN/UK

Large Constellations

Loading constellations...